Change the Weather History Date:

Wednesday, March 26, 2014

  Actual Average (KRFD) Record (KRFD)
Temperature  
Mean Temperature 25 °F 41 °F  
Max Temperature 38 °F 52 °F 81 °F (1907)
Min Temperature 12 °F 31 °F 5 °F (1960)
Degree Days  
Heating Degree Days 40 24  
Month to date heating degree days 751  
Since 1 July heating degree days 5753  
Cooling Degree Days 0 0  
Month to date cooling degree days 0  
Year to date cooling degree days 0  
Moisture  
Dew Point 17 °F    
Average Humidity 66    
Maximum Humidity 90    
Minimum Humidity 51    
Precipitation  
Precipitation 0.00 in 0.09 in 1.38 in (1916)
Month to date precipitation 1.86  
Year to date precipitation 4.64  
Snow  
Snow 0.00 in 0.10 in 2.20 in (1928)
Month to date snowfall 4.3  
Since 1 July snowfall 35.3  
Snow Depth -    
Sea Level Pressure  
Sea Level Pressure 30.17 in    
Wind  
Wind Speed 9 mph (South)    
Max Wind Speed 24 mph    
Max Gust Speed 31 mph    
Visibility 10 miles    
Events      
T = Trace of Precipitation, MM = Missing Value Source: NWS Daily Summary

Daily Weather History Graph

Daily Weather History Graph

Search for Another Location

Airport or City:

Trip Planner

Search our weather history database for the weather conditions in past years. The results will help you decide how hot, cold, wet, or windy it might be!

Date:

Astronomy

Mar. 26, 2014 Rise Set
Actual Time 6:49 AM CDT 7:15 PM CDT
Civil Twilight 6:21 AM CDT 7:43 PM CDT
Nautical Twilight 5:48 AM CDT 8:16 PM CDT
Astronomical Twilight 5:14 AM CDT 8:50 PM CDT
Moon 4:01 AM CDT (3/26) 2:50 PM CDT (3/26)
Length of Visible Light 13h 21m
Length of Day
12h 25m
Waning Crescent, 21% of the Moon is Illuminated
Mar 26
Waning Crescent
Mar 30
New
Apr 7
First Quarter
Apr 15
Full
Apr 22
Last Quarter

Hourly Weather History & Observations

Time (CDT) Temp. Windchill Dew Point Humidity Pressure Visibility Wind Dir Wind Speed Gust Speed Precip Events Conditions
12:15 AM 19.0 °F 9.0 °F 10.4 °F 69% 30.25 in 10.0 mi WNW 8.1 mph - N/A   Clear
12:35 AM 18.9 °F 9.8 °F 10.8 °F 71% 30.25 in 10.0 mi WNW 6.9 mph - N/A   Clear
12:55 AM 18.3 °F 10.2 °F 11.3 °F 74% 30.26 in 10.0 mi WNW 5.8 mph - N/A   Clear
1:15 AM 17.8 °F 9.6 °F 11.1 °F 75% 30.26 in 10.0 mi WNW 5.8 mph - N/A   Clear
1:35 AM 17.4 °F 12.1 °F 10.4 °F 74% 30.26 in 10.0 mi WNW 3.5 mph - N/A   Clear
1:55 AM 16.7 °F - 9.9 °F 74% 30.25 in 10.0 mi Calm Calm - N/A   Clear
2:15 AM 15.8 °F - 9.1 °F 75% 30.25 in 10.0 mi Calm Calm - N/A   Clear
2:35 AM 15.4 °F 9.8 °F 9.5 °F 77% 30.26 in 10.0 mi West 3.5 mph - N/A   Clear
2:55 AM 15.1 °F 9.4 °F 10.0 °F 80% 30.26 in 10.0 mi West 3.5 mph - N/A   Clear
3:15 AM 14.9 °F 7.5 °F 10.6 °F 83% 30.26 in 10.0 mi West 4.6 mph - N/A   Clear
3:35 AM 14.5 °F - 9.9 °F 82% 30.26 in 10.0 mi Calm Calm - N/A   Clear
3:55 AM 12.9 °F - 8.4 °F 82% 30.26 in 10.0 mi Calm Calm - N/A   Clear
4:15 AM 13.8 °F - 10.2 °F 86% 30.25 in 10.0 mi Calm Calm - N/A   Clear
4:35 AM 13.5 °F 7.5 °F 9.7 °F 85% 30.26 in 10.0 mi WSW 3.5 mph - N/A   Clear
4:55 AM 13.8 °F 6.2 °F 10.8 °F 88% 30.26 in 10.0 mi WSW 4.6 mph - N/A   Clear
5:15 AM 14.0 °F - 11.1 °F 88% 30.26 in 10.0 mi Calm Calm - N/A   Clear
5:35 AM 13.5 °F - 10.4 °F 88% 30.27 in 10.0 mi Calm Calm - N/A   Clear
5:55 AM 13.8 °F 8.0 °F 10.9 °F 88% 30.28 in 10.0 mi South 3.5 mph - N/A   Clear
6:15 AM 13.8 °F - 11.1 °F 89% 30.28 in 10.0 mi Calm Calm - N/A   Clear
6:35 AM 14.0 °F 6.5 °F 11.3 °F 89% 30.29 in 10.0 mi South 4.6 mph - N/A   Clear
6:55 AM 14.0 °F 8.2 °F 11.3 °F 89% 30.29 in 10.0 mi South 3.5 mph - N/A   Clear
7:15 AM 14.2 °F 8.4 °F 11.8 °F 90% 30.29 in 10.0 mi South 3.5 mph - N/A   Clear
7:35 AM 16.2 °F 7.6 °F 13.8 °F 90% 30.30 in 10.0 mi SSW 5.8 mph - N/A   Clear
7:55 AM 17.8 °F 10.9 °F 14.9 °F 88% 30.29 in 10.0 mi South 4.6 mph - N/A   Clear
8:15 AM 20.5 °F 12.8 °F 14.0 °F 76% 30.29 in 10.0 mi SSE 5.8 mph - N/A   Clear
8:35 AM 22.3 °F 13.9 °F 12.0 °F 65% 30.29 in 10.0 mi South 6.9 mph - N/A   Clear
8:55 AM 23.7 °F 14.7 °F 11.1 °F 59% 30.30 in 10.0 mi South 8.1 mph - N/A   Clear
9:15 AM 24.8 °F 15.3 °F 10.9 °F 56% 30.29 in 10.0 mi South 9.2 mph - N/A   Clear
9:35 AM 25.7 °F 17.1 °F 10.0 °F 52% 30.29 in 10.0 mi South 8.1 mph - N/A   Clear
9:55 AM 26.6 °F 16.8 °F 10.8 °F 51% 30.30 in 10.0 mi SSE 10.4 mph - N/A   Clear
10:15 AM 27.1 °F 17.5 °F 11.8 °F 53% 30.30 in 10.0 mi South 10.4 mph - N/A   Clear
10:35 AM 28.2 °F 20.2 °F 12.4 °F 52% 30.29 in 10.0 mi South 8.1 mph - N/A   Clear
10:55 AM 28.8 °F 19.5 °F 13.5 °F 53% 30.28 in 10.0 mi South 10.4 mph - N/A   Clear
11:15 AM 29.3 °F 19.6 °F 14.4 °F 54% 30.27 in 10.0 mi SSW 11.5 mph 16.1 mph N/A   Clear
11:35 AM 30.2 °F 21.9 °F 14.5 °F 52% 30.25 in 10.0 mi SSE 9.2 mph - N/A   Scattered Clouds
11:55 AM 31.5 °F 22.9 °F 15.1 °F 51% 30.25 in 10.0 mi South 10.4 mph - N/A   Mostly Cloudy
12:15 PM 32.0 °F 24.2 °F 16.0 °F 52% 30.24 in 10.0 mi South 9.2 mph 20.7 mph N/A   Scattered Clouds
12:35 PM 32.5 °F 23.2 °F 17.6 °F 54% 30.24 in 10.0 mi South 12.7 mph 17.3 mph N/A   Clear
12:55 PM 33.3 °F 23.2 °F 17.1 °F 51% 30.22 in 10.0 mi South 15.0 mph 18.4 mph N/A   Clear
1:15 PM 34.2 °F 25.2 °F 17.8 °F 51% 30.21 in 10.0 mi South 12.7 mph 17.3 mph N/A   Clear
1:35 PM 34.5 °F 25.3 °F 18.7 °F 52% 30.20 in 10.0 mi South 13.8 mph 19.6 mph N/A   Clear
1:55 PM 34.9 °F 25.3 °F 18.7 °F 52% 30.19 in 10.0 mi SSE 15.0 mph 18.4 mph N/A   Scattered Clouds
2:15 PM 36.5 °F 27.8 °F 19.8 °F 51% 30.18 in 10.0 mi South 13.8 mph 19.6 mph N/A   Scattered Clouds
2:35 PM 36.7 °F 27.6 °F 20.7 °F 52% 30.17 in 10.0 mi South 15.0 mph 20.7 mph N/A   Scattered Clouds
2:55 PM 37.4 °F 28.5 °F 21.2 °F 52% 30.15 in 10.0 mi South 15.0 mph 21.9 mph N/A   Scattered Clouds
3:15 PM 37.2 °F 27.3 °F 20.7 °F 51% 30.14 in 10.0 mi South 18.4 mph 21.9 mph N/A   Scattered Clouds
3:35 PM 37.4 °F 28.5 °F 20.8 °F 51% 30.13 in 10.0 mi South 15.0 mph - N/A   Scattered Clouds
3:55 PM 37.9 °F 28.9 °F 21.4 °F 51% 30.12 in 10.0 mi South 16.1 mph 25.3 mph N/A   Mostly Cloudy
4:15 PM 37.4 °F 27.8 °F 21.9 °F 54% 30.10 in 10.0 mi South 17.3 mph 23.0 mph N/A   Mostly Cloudy
4:35 PM 38.5 °F 28.9 °F 22.3 °F 52% 30.09 in 10.0 mi South 18.4 mph 24.2 mph N/A   Mostly Cloudy
4:55 PM 37.4 °F 26.9 °F 21.9 °F 54% 30.08 in 10.0 mi South 20.7 mph 24.2 mph N/A   Mostly Cloudy
5:15 PM 36.7 °F 26.9 °F 23.0 °F 58% 30.06 in 10.0 mi SSE 17.3 mph 24.2 mph N/A   Overcast
5:35 PM 36.5 °F 25.7 °F 23.4 °F 59% 30.06 in 10.0 mi SSE 20.7 mph 25.3 mph N/A   Overcast
5:55 PM 36.5 °F 26.0 °F 23.5 °F 59% 30.05 in 10.0 mi SSE 19.6 mph 26.5 mph N/A   Overcast
6:15 PM 36.1 °F 25.9 °F 23.5 °F 60% 30.04 in 10.0 mi SSE 18.4 mph 24.2 mph N/A   Overcast
6:35 PM 35.8 °F 25.7 °F 24.4 °F 63% 30.03 in 10.0 mi SSE 17.3 mph - N/A   Overcast
6:55 PM 35.6 °F 26.6 °F 24.8 °F 65% 30.02 in 10.0 mi SSE 13.8 mph - N/A   Overcast
7:15 PM 35.6 °F 25.5 °F 23.9 °F 62% 30.01 in 10.0 mi SSE 17.3 mph 21.9 mph N/A   Overcast
7:35 PM 35.2 °F 25.4 °F 24.3 °F 64% 30.00 in 10.0 mi SSE 16.1 mph - N/A   Overcast
7:55 PM 35.2 °F 25.0 °F 24.3 °F 64% 29.99 in 10.0 mi SSE 17.3 mph - N/A   Overcast
8:15 PM 35.4 °F 25.3 °F 24.3 °F 64% 29.99 in 10.0 mi SSE 17.3 mph 21.9 mph N/A   Overcast
8:35 PM 35.8 °F 25.1 °F 23.5 °F 61% 29.99 in 10.0 mi SSE 19.6 mph - N/A   Overcast
8:55 PM 35.8 °F 25.1 °F 23.9 °F 62% 29.99 in 10.0 mi SSE 19.6 mph - N/A   Overcast
9:15 PM 35.6 °F 25.2 °F 23.7 °F 62% 30.00 in 10.0 mi South 18.4 mph - N/A   Overcast
9:35 PM 35.6 °F 25.2 °F 24.1 °F 63% 29.99 in 10.0 mi South 18.4 mph - N/A   Overcast
9:55 PM 35.6 °F 24.8 °F 23.9 °F 62% 29.98 in 10.0 mi South 19.6 mph 25.3 mph N/A   Overcast
10:15 PM 35.6 °F 23.7 °F 23.9 °F 62% 29.97 in 10.0 mi South 24.2 mph - N/A   Overcast
10:35 PM 35.8 °F 24.2 °F 23.9 °F 62% 29.97 in 10.0 mi South 23.0 mph 29.9 mph N/A   Overcast
10:55 PM 35.8 °F 23.9 °F 24.4 °F 63% 29.95 in 10.0 mi South 24.2 mph 29.9 mph N/A   Overcast
11:15 PM 35.6 °F 23.7 °F 24.6 °F 64% 29.95 in 10.0 mi South 24.2 mph 31.1 mph N/A   Overcast
11:35 PM 35.6 °F 24.0 °F 24.6 °F 64% 29.94 in 10.0 mi South 23.0 mph 28.8 mph N/A   Overcast
11:55 PM 35.4 °F 24.3 °F 25.0 °F 66% 29.94 in 10.0 mi South 20.7 mph 25.3 mph N/A   Overcast